Hourly Weather Aban

Today, 23 October, Friday

Time Temperature Precipitation Wind Pressure Humidity
00:00 +7°C° 0 mm 5 mps 733 mmHg 58%
01:00 +6°C° 0 mm 5 mps 734 mmHg 64%
02:00 +5°C° 0 mm 5 mps 734 mmHg 69%
03:00 +5°C° 0 mm 5 mps 735 mmHg 75%
04:00 +3°C° 0 mm 5 mps 736 mmHg 75%
05:00 +4°C° 0 mm 4 mps 737 mmHg 75%
06:00 +3°C° 0 mm 5 mps 737 mmHg 77%
07:00 +3°C° 0 mm 5 mps 738 mmHg 72%
08:00 +3°C° 0 mm 5 mps 739 mmHg 67%
09:00 +2°C° 0 mm 5 mps 740 mmHg 63%
10:00 +3°C° 0 mm 5 mps 740 mmHg 60%
11:00 +4°C° 0 mm 4 mps 740 mmHg 58%
12:00 +4°C° 0 mm 4 mps 740 mmHg 56%
13:00 +4°C° 0 mm 3 mps 740 mmHg 58%
14:00 +5°C° 0 mm 2 mps 740 mmHg 59%
15:00 +5°C° 0 mm 2 mps 740 mmHg 60%
16:00 +4°C° 0 mm 2 mps 740 mmHg 64%
17:00 +4°C° 0 mm 2 mps 740 mmHg 68%
18:00 +3°C° 0 mm 2 mps 740 mmHg 71%
19:00 +2°C° 0 mm 3 mps 742 mmHg 66%
20:00 +3°C° 0 mm 2 mps 741 mmHg 70%
21:00 +3°C° 0 mm 2 mps 741 mmHg 74%
22:00 +2°C° 0 mm 2 mps 741 mmHg 79%
23:00 +1°C° 0 mm 3 mps 741 mmHg 83%

Tomorrow, 24 October, Saturday

Time Temperature Precipitation Wind Pressure Humidity
00:00 0°C° 0 mm 3 mps 741 mmHg 87%
01:00 0°C° 0 mm 3 mps 741 mmHg 88%
02:00 +1°C° 0 mm 2 mps 741 mmHg 90%
03:00 +1°C° 0 mm 2 mps 741 mmHg 92%
04:00 +1°C° 0 mm 2 mps 741 mmHg 91%
05:00 +1°C° 0 mm 2 mps 741 mmHg 90%
06:00 +1°C° 0 mm 2 mps 742 mmHg 88%
07:00 +1°C° 0 mm 2 mps 742 mmHg 84%
08:00 +2°C° 0 mm 2 mps 742 mmHg 81%
09:00 +2°C° 0 mm 3 mps 743 mmHg 77%
10:00 +2°C° 0 mm 3 mps 743 mmHg 70%
11:00 +2°C° 0 mm 3 mps 743 mmHg 63%
12:00 +3°C° 0 mm 3 mps 743 mmHg 57%
13:00 +4°C° 0 mm 2 mps 743 mmHg 57%
14:00 +4°C° 0 mm 2 mps 743 mmHg 57%
15:00 +4°C° 0 mm 1 mps 743 mmHg 56%
16:00 +4°C° 0 mm 1 mps 743 mmHg 59%
17:00 +3°C° 0 mm 1 mps 744 mmHg 62%
18:00 +2°C° 0 mm 1 mps 744 mmHg 65%
19:00 +2°C° 0 mm 1 mps 744 mmHg 68%
20:00 -1°C° 0 mm 2 mps 744 mmHg 71%
21:00 -1°C° 0 mm 2 mps 745 mmHg 74%
22:00 -1°C° 0 mm 2 mps 745 mmHg 74%
23:00 -1°C° 0 mm 2 mps 745 mmHg 74%

Day after tomorrow, 25 October, Sunday

Time Temperature Precipitation Wind Pressure Humidity
00:00 -1°C° 0 mm 2 mps 746 mmHg 74%
01:00 -2°C° 0 mm 2 mps 746 mmHg 72%
02:00 -2°C° 0 mm 3 mps 747 mmHg 70%
03:00 -2°C° 0 mm 3 mps 747 mmHg 68%
04:00 -2°C° 0 mm 3 mps 747 mmHg 69%
05:00 -2°C° 0 mm 3 mps 748 mmHg 71%
06:00 -4°C° 0 mm 3 mps 748 mmHg 72%
07:00 -3°C° 0 mm 4 mps 748 mmHg 68%
08:00 -3°C° 0 mm 4 mps 748 mmHg 65%
09:00 -2°C° 0 mm 5 mps 749 mmHg 62%
10:00 -2°C° 0 mm 5 mps 749 mmHg 58%
11:00 -1°C° 0 mm 5 mps 749 mmHg 54%
12:00 -1°C° 0 mm 5 mps 750 mmHg 50%
13:00 -1°C° 0 mm 5 mps 750 mmHg 51%
14:00 -2°C° 0 mm 4 mps 750 mmHg 52%
15:00 -2°C° 0 mm 4 mps 751 mmHg 53%
16:00 -3°C° 0 mm 4 mps 751 mmHg 57%
17:00 -4°C° 0 mm 3 mps 751 mmHg 61%
18:00 -4°C° 0 mm 2 mps 752 mmHg 64%
19:00 -4°C° 0 mm 2 mps 752 mmHg 66%
20:00 -4°C° 0 mm 2 mps 752 mmHg 67%
21:00 -2°C° 0 mm 1 mps 752 mmHg 68%
22:00 -4°C° 0 mm 2 mps 751 mmHg 67%
23:00 -4°C° 0 mm 2 mps 751 mmHg 67%

, 26 October, Monday

Time Temperature Precipitation Wind Pressure Humidity
00:00 -4°C° 0 mm 2 mps 751 mmHg 66%
01:00 -4°C° 0 mm 2 mps 750 mmHg 66%
02:00 -4°C° 0 mm 2 mps 750 mmHg 66%
03:00 -4°C° 0 mm 2 mps 750 mmHg 65%
04:00 -4°C° 0 mm 2 mps 749 mmHg 64%
05:00 -5°C° 0 mm 3 mps 749 mmHg 62%
06:00 -5°C° 0 mm 3 mps 749 mmHg 60%
07:00 -4°C° 0 mm 3 mps 748 mmHg 55%
08:00 -4°C° 0 mm 3 mps 748 mmHg 51%
09:00 -4°C° 0 mm 4 mps 748 mmHg 46%
10:00 -2°C° 0 mm 3 mps 747 mmHg 44%
11:00 -2°C° 0 mm 3 mps 746 mmHg 41%
12:00 -1°C° 0 mm 3 mps 746 mmHg 39%
13:00 -1°C° 0 mm 3 mps 745 mmHg 41%
14:00 -1°C° 0 mm 3 mps 745 mmHg 42%
15:00 -1°C° 0 mm 2 mps 745 mmHg 44%
16:00 -1°C° 0 mm 2 mps 744 mmHg 46%
17:00 -1°C° 0 mm 2 mps 744 mmHg 49%
18:00 -2°C° 0 mm 2 mps 744 mmHg 52%
19:00 -2°C° 0 mm 3 mps 744 mmHg 62%
20:00 -2°C° 0 mm 3 mps 744 mmHg 71%
21:00 -2°C° 0 mm 3 mps 743 mmHg 81%
22:00 -1°C° 0.2 mm 3 mps 743 mmHg 86%
23:00 -2°C° 0.2 mm 4 mps 743 mmHg 90%

26 October, Monday

Time Temperature Precipitation Wind Pressure Humidity
00:00 -4°C° 0 mm 2 mps 751 mmHg 66%
01:00 -4°C° 0 mm 2 mps 750 mmHg 66%
02:00 -4°C° 0 mm 2 mps 750 mmHg 66%
03:00 -4°C° 0 mm 2 mps 750 mmHg 65%
04:00 -4°C° 0 mm 2 mps 749 mmHg 64%
05:00 -5°C° 0 mm 3 mps 749 mmHg 62%
06:00 -5°C° 0 mm 3 mps 749 mmHg 60%
07:00 -4°C° 0 mm 3 mps 748 mmHg 55%
08:00 -4°C° 0 mm 3 mps 748 mmHg 51%
09:00 -4°C° 0 mm 4 mps 748 mmHg 46%
10:00 -2°C° 0 mm 3 mps 747 mmHg 44%
11:00 -2°C° 0 mm 3 mps 746 mmHg 41%
12:00 -1°C° 0 mm 3 mps 746 mmHg 39%
13:00 -1°C° 0 mm 3 mps 745 mmHg 41%
14:00 -1°C° 0 mm 3 mps 745 mmHg 42%
15:00 -1°C° 0 mm 2 mps 745 mmHg 44%
16:00 -1°C° 0 mm 2 mps 744 mmHg 46%
17:00 -1°C° 0 mm 2 mps 744 mmHg 49%
18:00 -2°C° 0 mm 2 mps 744 mmHg 52%
19:00 -2°C° 0 mm 3 mps 744 mmHg 62%
20:00 -2°C° 0 mm 3 mps 744 mmHg 71%
21:00 -2°C° 0 mm 3 mps 743 mmHg 81%
22:00 -1°C° 0.2 mm 3 mps 743 mmHg 86%
23:00 -2°C° 0.2 mm 4 mps 743 mmHg 90%

27 October, Tuesday

Time Temperature Precipitation Wind Pressure Humidity
00:00 -2°C° 0.2 mm 4 mps 742 mmHg 95%
01:00 -2°C° 0.4 mm 4 mps 742 mmHg 96%
02:00 -2°C° 0.4 mm 4 mps 742 mmHg 96%
03:00 -2°C° 0.4 mm 4 mps 741 mmHg 97%
04:00 -2°C° 0.3 mm 4 mps 741 mmHg 97%
05:00 -1°C° 0.3 mm 4 mps 741 mmHg 97%
06:00 -1°C° 0.3 mm 4 mps 741 mmHg 97%
07:00 -1°C° 0 mm 4 mps 741 mmHg 96%
08:00 0°C° 0 mm 4 mps 741 mmHg 95%
09:00 0°C° 0 mm 4 mps 740 mmHg 93%
10:00 +1°C° 0 mm 4 mps 740 mmHg 90%
11:00 +1°C° 0 mm 4 mps 740 mmHg 87%
12:00 +2°C° 0 mm 3 mps 740 mmHg 84%
13:00 +2°C° 0.1 mm 3 mps 739 mmHg 88%
14:00 +2°C° 0.1 mm 3 mps 739 mmHg 92%
15:00 +2°C° 0.1 mm 3 mps 739 mmHg 96%
16:00 +1°C° 0.2 mm 4 mps 739 mmHg 95%
17:00 +1°C° 0.2 mm 4 mps 738 mmHg 93%
18:00 +1°C° 0.2 mm 4 mps 738 mmHg 92%
19:00 +3°C° 0.2 mm 4 mps 738 mmHg 92%
20:00 +2°C° 0.2 mm 5 mps 737 mmHg 91%
21:00 +2°C° 0.2 mm 5 mps 737 mmHg 90%
22:00 +2°C° 0.2 mm 5 mps 737 mmHg 90%
23:00 +2°C° 0.2 mm 5 mps 737 mmHg 90%

28 October, Wednesday

Time Temperature Precipitation Wind Pressure Humidity
00:00 +2°C° 0.2 mm 5 mps 736 mmHg 90%
01:00 +3°C° 0 mm 4 mps 736 mmHg 89%
02:00 +3°C° 0 mm 4 mps 736 mmHg 88%
03:00 +3°C° 0 mm 3 mps 736 mmHg 88%
04:00 +2°C° 0 mm 3 mps 736 mmHg 88%
05:00 +2°C° 0 mm 3 mps 736 mmHg 88%
06:00 +2°C° 0 mm 2 mps 735 mmHg 88%
07:00 +2°C° 0 mm 3 mps 735 mmHg 86%
08:00 +3°C° 0 mm 3 mps 735 mmHg 83%
09:00 +3°C° 0 mm 3 mps 735 mmHg 81%
10:00 +4°C° 0 mm 3 mps 735 mmHg 80%
11:00 +6°C° 0 mm 2 mps 734 mmHg 79%
12:00 +6°C° 0 mm 2 mps 734 mmHg 78%
13:00 +6°C° 0 mm 2 mps 734 mmHg 79%
14:00 +6°C° 0 mm 2 mps 733 mmHg 80%
15:00 +6°C° 0 mm 2 mps 733 mmHg 81%
16:00 +5°C° 0 mm 2 mps 733 mmHg 83%
17:00 +5°C° 0 mm 2 mps 733 mmHg 84%
18:00 +5°C° 0 mm 2 mps 733 mmHg 86%
19:00 +5°C° 0.2 mm 2 mps 733 mmHg 86%
20:00 +5°C° 0.2 mm 2 mps 733 mmHg 86%
21:00 +6°C° 0.2 mm 1 mps 732 mmHg 86%
22:00 +4°C° 0.4 mm 3 mps 733 mmHg 86%
23:00 +3°C° 0.4 mm 5 mps 733 mmHg 87%
Show more